Hourly Weather Centenario do Sul

Today, 25 June, Friday

Time Temperature Precipitation Wind Pressure Humidity
00:00 +21°C° 0 mm 1 mps 721 mmHg 64%
01:00 +18°C° 0 mm 0 mps 721 mmHg 65%
02:00 +18°C° 0 mm 0 mps 721 mmHg 66%
03:00 +18°C° 0 mm 0 mps 721 mmHg 67%
04:00 +18°C° 0 mm 0 mps 721 mmHg 68%
05:00 +17°C° 0 mm 0 mps 721 mmHg 69%
06:00 +17°C° 0 mm 0 mps 721 mmHg 70%
07:00 +18°C° 0 mm 0 mps 722 mmHg 66%
08:00 +22°C° 0 mm 1 mps 722 mmHg 62%
09:00 +23°C° 0 mm 1 mps 723 mmHg 57%
10:00 +25°C° 0 mm 1 mps 723 mmHg 52%
11:00 +27°C° 0 mm 2 mps 723 mmHg 47%
12:00 +29°C° 0 mm 2 mps 723 mmHg 42%
13:00 +30°C° 0 mm 2 mps 723 mmHg 40%
14:00 +30°C° 0 mm 2 mps 722 mmHg 38%
15:00 +31°C° 0 mm 2 mps 722 mmHg 36%
16:00 +29°C° 0 mm 2 mps 722 mmHg 41%
17:00 +27°C° 0 mm 1 mps 721 mmHg 46%
18:00 +25°C° 0 mm 1 mps 721 mmHg 50%
19:00 +24°C° 0 mm 1 mps 721 mmHg 53%
20:00 +23°C° 0 mm 2 mps 722 mmHg 56%
21:00 +23°C° 0 mm 2 mps 722 mmHg 59%
22:00 +21°C° 0 mm 2 mps 722 mmHg 60%
23:00 +21°C° 0 mm 3 mps 721 mmHg 62%

Tomorrow, 26 June, Saturday

Time Temperature Precipitation Wind Pressure Humidity
00:00 +20°C° 0 mm 3 mps 721 mmHg 64%
01:00 +20°C° 0 mm 3 mps 721 mmHg 65%
02:00 +20°C° 0 mm 4 mps 721 mmHg 66%
03:00 +19°C° 0 mm 4 mps 721 mmHg 67%
04:00 +19°C° 0 mm 4 mps 721 mmHg 68%
05:00 +19°C° 0 mm 4 mps 721 mmHg 68%
06:00 +17°C° 0 mm 5 mps 721 mmHg 69%
07:00 +19°C° 0 mm 5 mps 722 mmHg 65%
08:00 +20°C° 0 mm 5 mps 722 mmHg 61%
09:00 +22°C° 0 mm 6 mps 723 mmHg 57%
10:00 +25°C° 0 mm 5 mps 723 mmHg 51%
11:00 +27°C° 0 mm 5 mps 723 mmHg 44%
12:00 +29°C° 0 mm 5 mps 723 mmHg 37%
13:00 +30°C° 0 mm 5 mps 723 mmHg 34%
14:00 +32°C° 0 mm 5 mps 722 mmHg 31%
15:00 +32°C° 0 mm 5 mps 721 mmHg 28%
16:00 +29°C° 0 mm 4 mps 721 mmHg 33%
17:00 +28°C° 0 mm 3 mps 721 mmHg 37%
18:00 +26°C° 0 mm 2 mps 720 mmHg 41%
19:00 +24°C° 0 mm 2 mps 721 mmHg 44%
20:00 +23°C° 0 mm 2 mps 721 mmHg 47%
21:00 +21°C° 0 mm 3 mps 721 mmHg 49%
22:00 +21°C° 0 mm 3 mps 721 mmHg 51%
23:00 +20°C° 0 mm 3 mps 721 mmHg 54%

Day after tomorrow, 27 June, Sunday

Time Temperature Precipitation Wind Pressure Humidity
00:00 +20°C° 0 mm 4 mps 721 mmHg 56%
01:00 +19°C° 0 mm 3 mps 721 mmHg 57%
02:00 +19°C° 0 mm 3 mps 721 mmHg 59%
03:00 +18°C° 0 mm 2 mps 720 mmHg 60%
04:00 +18°C° 0 mm 2 mps 721 mmHg 60%
05:00 +18°C° 0 mm 2 mps 721 mmHg 60%
06:00 +18°C° 0 mm 1 mps 721 mmHg 61%
07:00 +19°C° 0 mm 2 mps 721 mmHg 56%
08:00 +20°C° 0 mm 3 mps 722 mmHg 51%
09:00 +22°C° 0 mm 4 mps 723 mmHg 46%
10:00 +25°C° 0 mm 4 mps 722 mmHg 39%
11:00 +28°C° 0 mm 5 mps 722 mmHg 32%
12:00 +30°C° 0 mm 6 mps 722 mmHg 26%
13:00 +32°C° 0 mm 6 mps 722 mmHg 24%
14:00 +33°C° 0 mm 6 mps 721 mmHg 22%
15:00 +34°C° 0 mm 5 mps 721 mmHg 21%
16:00 +32°C° 0 mm 4 mps 720 mmHg 25%
17:00 +28°C° 0 mm 2 mps 720 mmHg 30%
18:00 +26°C° 0 mm 1 mps 720 mmHg 35%
19:00 +24°C° 0 mm 2 mps 721 mmHg 43%
20:00 +21°C° 0 mm 3 mps 721 mmHg 52%
21:00 +19°C° 0 mm 4 mps 722 mmHg 60%
22:00 +18°C° 0 mm 4 mps 722 mmHg 70%
23:00 +17°C° 0 mm 4 mps 722 mmHg 80%

28 June, Monday

Time Temperature Precipitation Wind Pressure Humidity
00:00 +15°C° 0 mm 4 mps 723 mmHg 90%
01:00 +15°C° 0 mm 4 mps 723 mmHg 90%
02:00 +15°C° 0 mm 4 mps 723 mmHg 90%
03:00 +14°C° 0 mm 3 mps 723 mmHg 90%
04:00 +14°C° 0 mm 4 mps 723 mmHg 89%
05:00 +14°C° 0 mm 4 mps 723 mmHg 87%
06:00 +14°C° 0 mm 5 mps 724 mmHg 86%
07:00 +14°C° 0 mm 5 mps 724 mmHg 82%
08:00 +15°C° 0 mm 5 mps 725 mmHg 78%
09:00 +15°C° 0 mm 5 mps 725 mmHg 74%
10:00 +16°C° 0 mm 5 mps 726 mmHg 68%
11:00 +19°C° 0 mm 5 mps 726 mmHg 62%
12:00 +20°C° 0 mm 5 mps 726 mmHg 56%
13:00 +20°C° 0 mm 6 mps 726 mmHg 55%
14:00 +21°C° 0 mm 6 mps 725 mmHg 54%
15:00 +21°C° 0 mm 6 mps 725 mmHg 52%
16:00 +19°C° 0 mm 6 mps 725 mmHg 56%
17:00 +17°C° 0 mm 6 mps 725 mmHg 60%
18:00 +16°C° 0 mm 5 mps 726 mmHg 63%
19:00 +14°C° 0 mm 5 mps 726 mmHg 66%
20:00 +13°C° 0 mm 5 mps 726 mmHg 68%
21:00 +12°C° 0 mm 5 mps 727 mmHg 71%
22:00 +12°C° 0 mm 5 mps 727 mmHg 73%
23:00 +11°C° 0 mm 4 mps 727 mmHg 76%

29 June, Tuesday

Time Temperature Precipitation Wind Pressure Humidity
00:00 +10°C° 0 mm 4 mps 727 mmHg 79%
01:00 +10°C° 0 mm 4 mps 727 mmHg 79%
02:00 +9°C° 0 mm 5 mps 727 mmHg 80%
03:00 +9°C° 0 mm 5 mps 727 mmHg 80%
04:00 +9°C° 0.1 mm 5 mps 727 mmHg 82%
05:00 +8°C° 0.1 mm 5 mps 727 mmHg 84%
06:00 +8°C° 0.1 mm 5 mps 727 mmHg 85%
07:00 +8°C° 0.3 mm 4 mps 728 mmHg 86%
08:00 +8°C° 0.3 mm 4 mps 728 mmHg 87%
09:00 +9°C° 0.3 mm 3 mps 728 mmHg 88%
10:00 +9°C° 0.3 mm 3 mps 729 mmHg 87%
11:00 +10°C° 0.3 mm 4 mps 729 mmHg 85%
12:00 +10°C° 0.3 mm 4 mps 729 mmHg 83%
13:00 +10°C° 0.4 mm 3 mps 729 mmHg 80%
14:00 +10°C° 0.4 mm 3 mps 728 mmHg 78%
15:00 +10°C° 0.4 mm 3 mps 728 mmHg 75%
16:00 +10°C° 0.1 mm 3 mps 728 mmHg 71%
17:00 +10°C° 0.1 mm 2 mps 728 mmHg 68%
18:00 +10°C° 0.1 mm 2 mps 728 mmHg 65%
19:00 +9°C° 0 mm 2 mps 728 mmHg 65%
20:00 +9°C° 0 mm 2 mps 728 mmHg 65%
21:00 +8°C° 0 mm 2 mps 728 mmHg 65%
22:00 +8°C° 0 mm 2 mps 728 mmHg 66%
23:00 +7°C° 0 mm 2 mps 728 mmHg 67%

30 June, Wednesday

Time Temperature Precipitation Wind Pressure Humidity
00:00 +7°C° 0 mm 2 mps 728 mmHg 68%
01:00 +6°C° 0 mm 2 mps 728 mmHg 69%
02:00 +6°C° 0 mm 2 mps 727 mmHg 70%
03:00 +6°C° 0 mm 2 mps 727 mmHg 71%
04:00 +5°C° 0 mm 2 mps 727 mmHg 71%
05:00 +4°C° 0 mm 2 mps 727 mmHg 72%
06:00 +4°C° 0 mm 2 mps 726 mmHg 73%
07:00 +6°C° 0 mm 2 mps 727 mmHg 66%
08:00 +7°C° 0 mm 2 mps 727 mmHg 59%
09:00 +9°C° 0 mm 2 mps 727 mmHg 52%
10:00 +13°C° 0 mm 2 mps 727 mmHg 45%
11:00 +15°C° 0 mm 2 mps 727 mmHg 38%
12:00 +19°C° 0 mm 1 mps 728 mmHg 30%
13:00 +20°C° 0 mm 1 mps 727 mmHg 28%
14:00 +20°C° 0 mm 1 mps 726 mmHg 26%
15:00 +19°C° 0 mm 0 mps 726 mmHg 24%
16:00 +17°C° 0 mm 0 mps 725 mmHg 29%
17:00 +16°C° 0 mm 1 mps 725 mmHg 34%
18:00 +14°C° 0 mm 1 mps 725 mmHg 39%
19:00 +13°C° 0 mm 1 mps 725 mmHg 42%
20:00 +12°C° 0 mm 1 mps 725 mmHg 45%
21:00 +11°C° 0 mm 1 mps 726 mmHg 48%
22:00 +10°C° 0 mm 1 mps 726 mmHg 50%
23:00 +9°C° 0 mm 2 mps 726 mmHg 52%
Show more

We Need Your Consent

Meteoprog and our Service Providers may store and access personal data such as cookies, device identifiers or other similar technologies on your device and process such data to personalise content and ads, as well as provide social media features and to analyse the traffic.

  • Store and/or access information on your device

    Cookies, device identifiers or other information can be stored or accessed on your device for the purposes indicated above.

  • Personalised ads and content, ad and content measurement, audience insights, and products development

    Ads and content can be personalised based on a profile. More data can be added to better personalise ads and content. Ad and content performance can be measured. Insights about the audience who saw the ads and content can be derived. Such data can be used to develop or improve user’s experience, systems and software.

By clicking ‘I Agree’ you will allow the use of indicated cookies, device identifiers, web beacons or other similar technologies. Your settings can be changed in the browser on your device.

For certain purposes, legitimate interests may be relied on, rather than consent. You can read more about this in our Privacy and Cookie Policy.